Location: Cheching
(60.0667°N, 164.2167°W)
Time: 15:32:32
(UTC+00:00)

O/OREOS (USA 219) - Pass Details

Date: 18 January 2021
Orbit: 621 x 646 km, 72.0° (Epoch: 22 May)

Event Time Altitude Azimuth Distance (km) Brightness Sun altitude
Rises 03:46:17 0° 322° (NW) 2,966 ? -8.2°
Reaches altitude 10° 03:48:37 10° 317° (NW) 2,049 ? -8.4°
Maximum altitude 03:53:04 51° 242° (WSW) 807 ? -8.9°
Drops below altitude 10° 03:57:28 10° 167° (SSE) 2,021 ? -9.4°
Sets 03:59:46 0° 162° (SSE) 2,921 ? -9.7°
